Вернуться в каталог

COSMOS 1198

АктивенНавигацияLEO
NORAD 11881·PAYLOAD·🇷🇺 Russia

Запущен Jul 9, 1980 с Plesetsk Cosmodrome

Loading…

Ближайшие Пролёты (ближайшие 24 часа)

TLE

СвежийSource: Space-Track

Эпоха: Sep 14, 2026, 06:53 UTC

1 11881U 80058G   26257.28747869 -.00000016  00000-0 -14791-5 0  9999
2 11881  74.0148  97.4713 0021752  65.8181  45.9917 12.43795047 96914

Отслеживайте COSMOS 1198 в реальном времени с AllMySat

Download on the App Store